Location: Lombard
(41.8800°N, 88.0080°W)
Time: 11:59:17
(UTC-06:00)

Transit 4A - Pass Details

Date: 07 December 2023
Orbit: 870 x 973 km, 66.8° (Epoch: 02 March)

Event Time Altitude Azimuth Distance (km) Brightness Sun altitude
Rises 04:06:10 0° 331° (NNW) 3,594 - -32.6°
Reaches altitude 10° 04:08:45 10° 333° (NNW) 2,631 - -32.2°
Maximum altitude 04:14:51 71° 58° (ENE) 958 - -31.0°
Exits shadow 04:14:56 71° 64° (ENE) 958 8.0 -31.0°
Drops below altitude 10° 04:20:44 10° 142° (SE) 2,547 10.7 -29.9°
Sets 04:23:12 0° 145° (SE) 3,471 11.4 -29.5°
